This demonstration page uses our WeatherBlox Daily Observations layout. Learn more.

Left ArrowRight Arrow

34.02893, -84.19858

Hourly Observations for May 16, 2015

Temp ( °F °C ) Dew Point ( °F °C ) Humidity (%) Winds ( mph kmh ) Pressure ( in mb ) Visibility ( mi km ) Precip ( " mm )
12:53 am 00:53 Clear 67 19.4 62 16.7 84 84 Calm 30.20 1023 7 11 0.00 0.00
1:53 am 01:53 Clear 66 18.9 62 16.7 87 87 SE 5 7 30.20 1023 7 11 0.00 0.00
2:53 am 02:53 Clear 68 20 61 16.1 78 78 SSE 5 7 30.18 1022 8 13 0.00 0.00
3:53 am 03:53 Clear 67 19.4 61 16.1 81 81 SSE 6 9 30.18 1022 8 13 0.00 0.00
4:53 am 04:53 Mostly Cloudy 66 18.9 60 15.6 81 81 SSE 6 9 30.18 1022 8 13 0.00 0.00
5:53 am 05:53 Mostly Clear 65 18.3 60 15.6 84 84 SSE 5 7 30.19 1022 8 13 0.00 0.00
6:53 am 06:53 Mostly Sunny 65 18.3 60 15.6 84 84 SE 3 6 30.20 1023 7 11 0.00 0.00
7:53 am 07:53 Sunny 66 18.9 60 15.6 81 81 SSE 6 9 30.22 1023 7 11 0.00 0.00
8:53 am 08:53 Sunny 67 19.4 61 16.1 81 81 SSE 7 11 30.22 1024 7 11 0.00 0.00
9:53 am 09:53 Sunny 70 21.1 61 16.1 73 73 SE 5 7 30.23 1024 8 13 0.00 0.00
10:53 am 10:53 Partly Cloudy 75 23.9 60 15.6 60 60 VRB 6 9 30.22 1023 8 13 0.00 0.00
11:53 am 11:53 Mostly Sunny 78 25.6 60 15.6 54 54 VRB 6 9 30.22 1023 8 13 0.00 0.00
12:53 pm 12:53 Sunny 81 27.2 58 14.4 45 45 VRB 6 9 30.20 1023 9 14 0.00 0.00
1:53 pm 13:53 Sunny 81 27.2 58 14.4 45 45 S 7 11 30.19 1022 9 14 0.00 0.00
2:53 pm 14:53 Mostly Cloudy 83 28.3 59 15 44 44 VRB 3 6 30.16 1021 9 14 0.00 0.00
3:53 pm 15:53 Mostly Sunny 83 28.3 59 15 44 44 SE 8 13 30.15 1021 8 13 0.00 0.00
4:53 pm 16:53 Mostly Sunny 84 28.9 58 14.4 41 41 SE 8 13 30.12 1020 9 14 0.00 0.00
5:53 pm 17:53 Mostly Sunny 84 28.9 59 15 43 43 VRB 7 11 30.11 1020 9 14 0.00 0.00
6:53 pm 18:53 Mostly Sunny 81 27.2 60 15.6 49 49 SE 10 17 30.12 1020 8 13 0.00 0.00
7:53 pm 19:53 Sunny 79 26.1 59 15 50 50 SSE 9 15 30.13 1020 8 13 0.00 0.00
8:53 pm 20:53 Clear 77 25 60 15.6 56 56 SE 3 6 30.15 1021 9 14 0.00 0.00
9:53 pm 21:53 Clear 76 24.4 60 15.6 58 58 SE 3 6 30.16 1021 9 14 0.00 0.00
10:53 pm 22:53 Clear 75 23.9 60 15.6 60 60 Calm 30.18 1022 9 14 0.00 0.00
11:53 pm 23:53 Clear 73 22.8 60 15.6 64 64 SE 5 7 30.18 1022 9 14 0.00 0.00

Powered by AerisWeather